| time (UTC) | temp C | wind direction | speed KPH | gust KPH | rain 1hr cm | rain 24hr cm | rain mn cm | humidity % | barometer mb |
| 20260508195556 | 15 | 292 | 1.6 | 3.2 | 0.00 | 0.00 | 0.00 | 78 | 1015.0 |
| 20260508194532 | 15 | 292 | 0.0 | 1.6 | 0.00 | 0.00 | 0.00 | 77 | 1014.9 |
| 20260508193652 | 15 | 292 | 0.0 | 1.6 | 0.00 | 0.00 | 0.00 | 77 | 1014.5 |
| 20260508192525 | 15 | 292 | 1.6 | 4.8 | 0.00 | 0.00 | 0.00 | 77 | 1014.5 |
| 20260508191521 | 16 | 292 | 1.6 | 3.2 | 0.00 | 0.00 | 0.00 | 75 | 1014.4 |
| 20260508190518 | 16 | 0.0 | 0.0 | 0.00 | 0.00 | 0.00 | 73 | 1014.1 | |
| 20260508185536 | 16 | 292 | 1.6 | 3.2 | 0.00 | 0.00 | 0.00 | 73 | 1014.0 |
| 20260508184509 | 16 | 292 | 1.6 | 3.2 | 0.00 | 0.00 | 0.00 | 71 | 1014.0 |
| 20260508183506 | 16 | 292 | 1.6 | 3.2 | 0.00 | 0.00 | 0.00 | 71 | 1013.9 |
| 20260508182504 | 17 | 292 | 1.6 | 3.2 | 0.00 | 0.00 | 0.00 | 71 | 1013.8 |
| 20260508182002 | 17 | 292 | 1.6 | 3.2 | 0.00 | 0.00 | 0.00 | 70 | 1014.0 |
| 20260508180958 | 17 | 0.0 | 1.6 | 0.00 | 0.00 | 0.00 | 70 | 1013.7 | |
| 20260508175955 | 17 | 292 | 1.6 | 3.2 | 0.00 | 0.00 | 0.00 | 68 | 1013.9 |
| 20260508175011 | 17 | 292 | 1.6 | 3.2 | 0.00 | 0.00 | 0.00 | 69 | 1013.9 |
| 20260508173947 | 17 | 315 | 1.6 | 3.2 | 0.00 | 0.00 | 0.00 | 68 | 1013.8 |
| 20260508172943 | 17 | 292 | 3.2 | 4.8 | 0.00 | 0.00 | 0.00 | 67 | 1013.8 |
| 20260508171939 | 17 | 292 | 0.0 | 1.6 | 0.00 | 0.00 | 0.00 | 65 | 1013.8 |
| 20260508170936 | 17 | 292 | 3.2 | 4.8 | 0.00 | 0.00 | 0.00 | 65 | 1013.8 |
| 20260508165954 | 17 | 315 | 4.8 | 4.8 | 0.00 | 0.00 | 0.00 | 65 | 1013.6 |
| 20260508164930 | 17 | 315 | 3.2 | 4.8 | 0.00 | 0.00 | 0.00 | 65 | 1013.6 |
| 20260508163927 | 17 | 315 | 4.8 | 6.4 | 0.00 | 0.00 | 0.00 | 63 | 1013.6 |
| 20260508162923 | 17 | 315 | 4.8 | 6.4 | 0.00 | 0.00 | 0.00 | 62 | 1013.4 |
| 20260508161939 | 17 | 315 | 4.8 | 6.4 | 0.00 | 0.00 | 0.00 | 61 | 1013.6 |
| 20260508160916 | 17 | 292 | 9.7 | 14.5 | 0.00 | 0.00 | 0.00 | 59 | 1013.6 |
| 20260508155936 | 17 | 315 | 4.8 | 6.4 | 0.00 | 0.00 | 0.00 | 59 | 1013.6 |
| 20260508154910 | 18 | 292 | 4.8 | 9.7 | 0.00 | 0.00 | 0.00 | 57 | 1013.9 |
| 20260508153907 | 19 | 292 | 1.6 | 4.8 | 0.00 | 0.00 | 0.00 | 57 | 1014.0 |
| 20260508152904 | 20 | 315 | 3.2 | 4.8 | 0.00 | 0.00 | 0.00 | 62 | 1013.9 |
| 20260508151900 | 20 | 337 | 0.0 | 3.2 | 0.00 | 0.00 | 0.00 | 62 | 1014.1 |
| 20260508150857 | 20 | 270 | 1.6 | 4.8 | 0.00 | 0.00 | 0.00 | 63 | 1013.8 |
| 20260508145915 | 21 | 292 | 4.8 | 6.4 | 0.00 | 0.00 | 0.00 | 59 | 1013.8 |
| 20260508144849 | 21 | 292 | 0.0 | 1.6 | 0.00 | 0.00 | 0.00 | 57 | 1013.7 |
| 20260508143846 | 21 | 292 | 3.2 | 4.8 | 0.00 | 0.00 | 0.00 | 57 | 1014.0 |
| 20260508142842 | 21 | 292 | 1.6 | 3.2 | 0.00 | 0.00 | 0.00 | 57 | 1013.9 |
| 20260508141840 | 21 | 315 | 1.6 | 3.2 | 0.00 | 0.00 | 0.00 | 57 | 1013.9 |
| 20260508140836 | 21 | 112 | 1.6 | 4.8 | 0.00 | 0.00 | 0.00 | 58 | 1014.0 |
| 20260508135853 | 21 | 0.0 | 1.6 | 0.00 | 0.00 | 0.00 | 55 | 1014.0 | |
| 20260508134829 | 21 | 112 | 1.6 | 4.8 | 0.00 | 0.00 | 0.00 | 55 | 1014.1 |
| 20260508133828 | 21 | 112 | 1.6 | 3.2 | 0.00 | 0.00 | 0.00 | 57 | 1014.0 |
| 20260508132822 | 21 | 112 | 1.6 | 3.2 | 0.00 | 0.00 | 0.00 | 55 | 1014.2 |
| 20260508131821 | 21 | 315 | 1.6 | 3.2 | 0.00 | 0.00 | 0.00 | 56 | 1014.2 |
| 20260508130816 | 21 | 315 | 1.6 | 3.2 | 0.00 | 0.00 | 0.00 | 59 | 1014.1 |
| 20260508125812 | 21 | 315 | 1.6 | 4.8 | 0.00 | 0.00 | 0.00 | 61 | 1014.4 |
| 20260508124811 | 21 | 0.0 | 0.0 | 0.00 | 0.00 | 0.00 | 57 | 1014.5 | |
| 20260508123805 | 21 | 292 | 3.2 | 9.7 | 0.00 | 0.00 | 0.00 | 61 | 1014.3 |
| 20260508122802 | 21 | 112 | 1.6 | 6.4 | 0.00 | 0.00 | 0.00 | 60 | 1014.5 |
| 20260508121759 | 21 | 0.0 | 1.6 | 0.00 | 0.00 | 0.00 | 60 | 1014.2 | |
| 20260508120758 | 20 | 112 | 4.8 | 9.7 | 0.00 | 0.00 | 0.00 | 60 | 1014.7 |
| 20260508115753 | 21 | 112 | 3.2 | 4.8 | 0.00 | 0.00 | 0.00 | 60 | 1014.6 |
| 20260508114749 | 20 | 112 | 1.6 | 3.2 | 0.00 | 0.00 | 0.00 | 61 | 1014.5 |
| 20260508113745 | 20 | 135 | 4.8 | 12.9 | 0.00 | 0.00 | 0.00 | 62 | 1014.5 |
| 20260508112741 | 19 | 112 | 3.2 | 4.8 | 0.00 | 0.00 | 0.00 | 62 | 1014.8 |
| 20260508111739 | 20 | 112 | 0.0 | 1.6 | 0.00 | 0.00 | 0.00 | 62 | 1014.6 |
| 20260508110735 | 19 | 315 | 3.2 | 6.4 | 0.00 | 0.00 | 0.00 | 62 | 1014.7 |
| 20260508105751 | 20 | 202 | 1.6 | 3.2 | 0.00 | 0.00 | 0.00 | 60 | 1014.7 |
| 20260508104729 | 19 | 292 | 3.2 | 6.4 | 0.00 | 0.00 | 0.00 | 62 | 1014.8 |
| 20260508103728 | 20 | 45 | 1.6 | 9.7 | 0.00 | 0.00 | 0.00 | 60 | 1014.7 |
| 20260508102721 | 18 | 112 | 3.2 | 4.8 | 0.00 | 0.00 | 0.00 | 64 | 1015.1 |
| 20260508101718 | 18 | 112 | 3.2 | 6.4 | 0.00 | 0.00 | 0.00 | 64 | 1015.1 |
| 20260508100717 | 19 | 67 | 4.8 | 9.7 | 0.00 | 0.00 | 0.00 | 64 | 1015.1 |
| 20260508095711 | 18 | 90 | 1.6 | 9.7 | 0.00 | 0.00 | 0.00 | 65 | 1015.1 |
| 20260508094706 | 18 | 90 | 4.8 | 12.9 | 0.00 | 0.00 | 0.00 | 65 | 1014.9 |
| 20260508093703 | 17 | 135 | 4.8 | 9.7 | 0.00 | 0.00 | 0.00 | 68 | 1015.1 |
| 20260508092659 | 17 | 45 | 1.6 | 9.7 | 0.00 | 0.00 | 0.00 | 66 | 1015.2 |
| 20260508091657 | 18 | 292 | 1.6 | 3.2 | 0.00 | 0.00 | 0.00 | 66 | 1014.8 |
| 20260508090653 | 18 | 67 | 4.8 | 9.7 | 0.00 | 0.00 | 0.00 | 66 | 1015.1 |
| 20260508085649 | 17 | 112 | 1.6 | 4.8 | 0.00 | 0.00 | 0.00 | 67 | 1015.0 |
| 20260508084646 | 17 | 292 | 3.2 | 9.7 | 0.00 | 0.00 | 0.00 | 67 | 1015.2 |
| 20260508083643 | 17 | 292 | 3.2 | 4.8 | 0.00 | 0.00 | 0.00 | 66 | 1015.1 |
| 20260508082640 | 17 | 112 | 1.6 | 6.4 | 0.00 | 0.00 | 0.00 | 67 | 1015.1 |
| 20260508081635 | 17 | 112 | 0.0 | 1.6 | 0.00 | 0.00 | 0.00 | 68 | 1015.0 |
| 20260508080631 | 16 | 315 | 1.6 | 3.2 | 0.00 | 0.00 | 0.00 | 69 | 1015.0 |
| 20260508075628 | 17 | 112 | 0.0 | 1.6 | 0.00 | 0.00 | 0.00 | 65 | 1015.0 |
| 20260508074625 | 20 | 270 | 0.0 | 1.6 | 0.00 | 0.00 | 0.00 | 61 | 1014.8 |
| 20260508073620 | 19 | 292 | 0.0 | 1.6 | 0.00 | 0.00 | 0.00 | 63 | 1014.8 |
| 20260508072658 | 19 | 292 | 0.0 | 3.2 | 0.00 | 0.00 | 0.00 | 64 | 1014.8 |
| 20260508071654 | 19 | 0.0 | 1.6 | 0.00 | 0.00 | 0.00 | 63 | 1014.8 | |
| 20260508070612 | 20 | 0.0 | 0.0 | 0.00 | 0.00 | 0.00 | 62 | 1014.7 | |
| 20260508065608 | 19 | 292 | 0.0 | 1.6 | 0.00 | 0.00 | 0.00 | 65 | 1014.9 |
| 20260508064605 | 18 | 292 | 1.6 | 1.6 | 0.00 | 0.00 | 0.00 | 65 | 1014.5 |
| 20260508063601 | 18 | 292 | 0.0 | 1.6 | 0.00 | 0.00 | 0.00 | 69 | 1014.4 |
| 20260508062620 | 17 | 292 | 0.0 | 3.2 | 0.00 | 0.00 | 0.00 | 68 | 1014.2 |
| 20260508061557 | 16 | 292 | 1.6 | 3.2 | 0.00 | 0.00 | 0.00 | 71 | 1014.0 |
| 20260508060553 | 16 | 292 | 0.0 | 3.2 | 0.00 | 0.00 | 0.00 | 73 | 1013.9 |
| 20260508055609 | 15 | 292 | 1.6 | 3.2 | 0.00 | 0.00 | 0.00 | 74 | 1014.1 |
| 20260508054546 | 15 | 292 | 0.0 | 1.6 | 0.00 | 0.00 | 0.00 | 76 | 1013.8 |
| 20260508053542 | 13 | 292 | 1.6 | 3.2 | 0.00 | 0.00 | 0.00 | 78 | 1013.8 |
| 20260508052538 | 13 | 292 | 1.6 | 3.2 | 0.00 | 0.00 | 0.00 | 79 | 1013.8 |
| 20260508051553 | 12 | 315 | 3.2 | 4.8 | 0.00 | 0.00 | 0.00 | 81 | 1013.5 |
| 20260508050529 | 12 | 315 | 3.2 | 4.8 | 0.00 | 0.00 | 0.00 | 82 | 1013.4 |
| 20260508045526 | 12 | 315 | 1.6 | 3.2 | 0.00 | 0.00 | 0.00 | 83 | 1013.3 |
| 20260508044605 | 12 | 315 | 1.6 | 3.2 | 0.00 | 0.00 | 0.00 | 85 | 1013.4 |
| 20260508043518 | 11 | 292 | 1.6 | 3.2 | 0.00 | 0.00 | 0.00 | 86 | 1013.6 |
| 20260508042515 | 11 | 315 | 0.0 | 1.6 | 0.00 | 0.00 | 0.00 | 86 | 1013.2 |
| 20260508041511 | 11 | 0.0 | 0.0 | 0.00 | 0.00 | 0.00 | 86 | 1013.4 | |
| 20260508040510 | 11 | 0.0 | 1.6 | 0.00 | 0.00 | 0.00 | 86 | 1013.4 | |
| 20260508035527 | 11 | 0.0 | 1.6 | 0.00 | 0.00 | 0.00 | 86 | 1013.3 | |
| 20260508034504 | 11 | 315 | 3.2 | 4.8 | 0.00 | 0.00 | 0.00 | 86 | 1013.0 |
| 20260508033502 | 11 | 292 | 1.6 | 3.2 | 0.00 | 0.00 | 0.00 | 86 | 1013.2 |
| 20260508032459 | 11 | 292 | 0.0 | 1.6 | 0.00 | 0.00 | 0.00 | 85 | 1013.0 |
| 20260508031456 | 12 | 292 | 1.6 | 3.2 | 0.00 | 0.03 | 0.00 | 85 | 1013.3 |
| 20260508030513 | 12 | 292 | 0.0 | 1.6 | 0.00 | 0.03 | 0.00 | 84 | 1013.2 |
| 20260508025449 | 12 | 292 | 1.6 | 3.2 | 0.00 | 0.03 | 0.00 | 85 | 1013.0 |
| 20260508024445 | 11 | 315 | 1.6 | 3.2 | 0.00 | 0.03 | 0.00 | 85 | 1012.9 |
| 20260508023504 | 11 | 315 | 4.8 | 4.8 | 0.00 | 0.03 | 0.00 | 85 | 1013.0 |
| 20260508022438 | 12 | 315 | 3.2 | 6.4 | 0.00 | 0.03 | 0.00 | 85 | 1013.2 |
| 20260508021435 | 12 | 315 | 1.6 | 4.8 | 0.00 | 0.03 | 0.00 | 84 | 1013.2 |
| 20260508020451 | 12 | 292 | 3.2 | 4.8 | 0.00 | 0.03 | 0.00 | 84 | 1013.2 |
| 20260508015428 | 12 | 292 | 1.6 | 3.2 | 0.00 | 0.03 | 0.00 | 84 | 1013.3 |
| 20260508014444 | 12 | 292 | 3.2 | 6.4 | 0.00 | 0.03 | 0.00 | 83 | 1013.0 |
| 20260508013421 | 12 | 270 | 1.6 | 3.2 | 0.00 | 0.03 | 0.00 | 83 | 1012.9 |
| 20260508012417 | 11 | 157 | 6.4 | 16.1 | 0.00 | 0.03 | 0.00 | 84 | 1013.2 |
| 20260508011413 | 11 | 315 | 1.6 | 3.2 | 0.00 | 0.03 | 0.00 | 85 | 1012.5 |
| 20260508010430 | 11 | 315 | 1.6 | 3.2 | 0.00 | 0.03 | 0.00 | 85 | 1012.8 |
| 20260508005406 | 11 | 292 | 1.6 | 3.2 | 0.00 | 0.03 | 0.00 | 85 | 1012.9 |
| 20260508004403 | 12 | 0.0 | 0.0 | 0.00 | 0.05 | 0.00 | 85 | 1012.8 | |
| 20260508003400 | 11 | 0.0 | 0.0 | 0.00 | 0.05 | 0.00 | 85 | 1013.0 | |
| 20260508002356 | 11 | 0.0 | 0.0 | 0.00 | 0.05 | 0.00 | 85 | 1012.8 | |
| 20260508001412 | 12 | 0.0 | 0.0 | 0.00 | 0.05 | 0.00 | 84 | 1013.2 | |
| 20260508000350 | 12 | 0.0 | 0.0 | 0.00 | 0.05 | 0.00 | 84 | 1012.9 | |
| 20260507235345 | 12 | 0.0 | 0.0 | 0.00 | 0.05 | 0.00 | 84 | 1013.0 | |
| 20260507234343 | 12 | 0.0 | 0.0 | 0.00 | 0.05 | 0.00 | 84 | 1012.9 | |
| 20260507233338 | 12 | 0.0 | 0.0 | 0.00 | 0.05 | 0.00 | 83 | 1012.9 | |
| 20260507232334 | 12 | 0.0 | 0.0 | 0.00 | 0.05 | 0.00 | 82 | 1013.3 | |
| 20260507231333 | 12 | 0.0 | 0.0 | 0.00 | 0.05 | 0.00 | 81 | 1012.9 | |
| 20260507230326 | 12 | 292 | 0.0 | 1.6 | 0.00 | 0.05 | 0.00 | 81 | 1012.9 |
| 20260507225323 | 13 | 0.0 | 0.0 | 0.00 | 0.05 | 0.00 | 82 | 1012.9 | |
| 20260507224319 | 13 | 292 | 0.0 | 1.6 | 0.00 | 0.05 | 0.00 | 81 | 1013.2 |
| 20260507223316 | 13 | 292 | 0.0 | 3.2 | 0.00 | 0.05 | 0.00 | 81 | 1013.2 |
| 20260507222312 | 13 | 292 | 0.0 | 3.2 | 0.00 | 0.05 | 0.00 | 81 | 1012.9 |
| 20260507221308 | 13 | 292 | 1.6 | 3.2 | 0.00 | 0.05 | 0.00 | 81 | 1012.9 |
| 20260507220304 | 13 | 0.0 | 0.0 | 0.00 | 0.05 | 0.00 | 82 | 1013.0 | |
| 20260507215256 | 13 | 0.0 | 0.0 | 0.00 | 0.05 | 0.05 | 83 | 1013.2 | |
| 20260507214332 | 13 | 0.0 | 0.0 | 0.00 | 0.05 | 0.05 | 81 | 1012.7 | |
| 20260507213249 | 14 | 0.0 | 0.0 | 0.00 | 0.05 | 0.05 | 79 | 1012.6 | |
| 20260507212247 | 15 | 0.0 | 0.0 | 0.00 | 0.05 | 0.05 | 78 | 1012.6 | |
| 20260507211242 | 15 | 0.0 | 0.0 | 0.00 | 0.05 | 0.05 | 77 | 1012.7 | |
| 20260507210238 | 15 | 0.0 | 0.0 | 0.00 | 0.05 | 0.05 | 76 | 1012.8 | |
| 20260507205315 | 15 | 0.0 | 0.0 | 0.00 | 0.05 | 0.05 | 75 | 1012.6 | |
| 20260507204312 | 16 | 0.0 | 0.0 | 0.00 | 0.05 | 0.05 | 74 | 1012.4 | |
| 20260507203227 | 16 | 315 | 0.0 | 3.2 | 0.00 | 0.05 | 0.05 | 73 | 1012.5 |
| 20260507202223 | 15 | 0.0 | 0.0 | 0.00 | 0.05 | 0.05 | 74 | 1012.4 | |
| 20260507201217 | 15 | 0.0 | 0.0 | 0.00 | 0.05 | 0.05 | 73 | 1012.0 |